Location: Bach
(48.3467°N, 14.1689°E)
Time: 02:52:39
(UTC+00:00)

Daily predictions for brighter satellites

Satellite Brightness Start Highest point End
(mag) Time Altitude Azimuth Time Altitude Azimuth Time Altitude Azimuth
USA 215 4.4 02:31:25 10° E 02:35:23 38° E 02:35:23 38° E
CENTAUR R/B 4.2 02:43:03 31° N 02:43:50 32° NNE 02:51:09 10° E
Cosmos 1697 Rocket 4.2 03:17:52 26° SE 03:19:48 33° ESE 03:24:45 10° NE
Lacrosse 5 rocket 3.8 03:24:41 20° NE 03:24:41 20° NE 03:26:12 10° NE
Cosmos 2344 4.2 03:27:49 25° S 03:32:01 52° ESE 03:39:45 10° NE
Meteor 1-22 Rocket 4.4 03:38:24 75° NE 03:38:24 75° NE 03:44:07 10° NNE
Cosmos 2082 4.0 03:41:01 62° SE 03:41:01 62° SE 03:45:45 10° SSE
COSMO-SKYMED 1 4.0 03:37:39 10° SE 03:40:40 36° ESE 03:40:40 36° ESE
Cosmos 2297 Rocket 3.9 03:56:04 19° S 03:56:04 19° S 03:57:41 10° S
NOSS 3-2 (C) 4.4 03:53:12 32° NNW 03:56:44 56° NE 04:04:49 10° ESE
Cosmos 2327 Rocket 4.4 03:56:16 10° N 04:02:36 90° WNW 04:08:47 10° S
Cosmos 2227 Rocket 3.7 04:07:19 23° SSW 04:07:19 23° SSW 04:09:32 10° S
Nadezhda 1 Rocket 3.9 04:00:53 10° S 04:06:57 80° E 04:13:04 10° N
Meteor 2-15 Rocket 4.4 04:07:32 61° WNW 04:07:32 61° WNW 04:13:17 10° N
ATLAS 3B R/B 3.6 04:06:41 23° NNW 04:10:16 40° NE 04:16:39 10° ESE
Cosmos 2263 Rocket 3.5 04:06:51 16° N 04:10:45 36° NE 04:15:57 10° ESE
NOSS 3-1 (A) 4.5 04:10:50 31° NNW 04:10:51 31° NNW 04:16:55 10° NE
ALOS 3.0 04:06:40 10° NNE 04:11:17 53° E 04:15:51 10° S
NOSS 2-2 (E) 3.8 04:12:29 55° ESE 04:12:29 55° ESE 04:16:24 10° NE
STARLINK-80 4.0 04:17:11 56° E 04:17:11 56° E 04:20:18 10° ENE
CZ-2C R/B 4.2 04:12:25 10° N 04:13:58 20° N 04:13:58 20° N
Cosmos 1656 3.6 04:17:31 57° NW 04:17:31 57° NW 04:22:42 10° NNE
Meteor 2-17 Rocket 4.4 04:13:03 10° N 04:19:10 80° E 04:25:14 10° SSE
NOSS 3-2 (A) 4.0 04:15:49 33° NW 04:19:46 88° NE 04:28:09 10° SE
STARLINK-48 3.8 04:20:10 60° SE 04:20:10 60° SE 04:23:53 10° ENE
USA 215 3.3 04:14:23 10° SE 04:20:50 62° SW 04:22:45 45° W
CZ-4B R/B 4.5 04:17:48 10° NNE 04:22:13 78° WNW 04:22:45 67° SW
BREEZE-M DEB (TANK) 2.7 04:22:23 60° SSW 04:22:55 70° SSE 04:31:27 10° ENE
Cosmos 2278 3.8 04:17:45 10° SSW 04:23:26 75° ESE 04:29:10 10° NNE
Abrixas rocket 3.4 04:28:36 39° E 04:28:36 39° E 04:30:40 10° E
Cosmos 2184 Rocket 4.2 04:28:01 45° W 04:28:12 45° W 04:34:05 10° SSW
METEOR-M 4.3 04:22:55 10° NNE 04:28:18 74° ESE 04:33:39 10° S
SKYMED 2 3.6 04:25:27 10° S 04:29:15 57° SW 04:29:15 57° SW
Cosmos 2369 3.6 04:28:34 27° SW 04:31:46 74° WNW 04:37:32 10° NNE
EXPRESS MD2 3.4 04:32:42 48° E 04:32:42 48° E 04:34:31 10° ENE
STARLINK-26 4.0 04:31:47 41° S 04:32:15 44° SE 04:35:39 10° ENE
FALCON 9 DEB 4.2 04:34:24 36° NNE 04:34:24 36° NNE 04:37:22 10° ENE
Cosmos 1758 Rocket 3.5 04:32:18 20° N 04:35:19 85° E 04:39:43 10° S
CENTAUR R/B 3.4 04:30:13 21° NW 04:35:57 70° NE 04:44:37 10° SE
Cosmos 2154 Rocket 3.9 04:30:09 10° NNW 04:36:15 61° W 04:42:19 10° S
Okean O Rocket 2.4 04:33:05 10° NNE 04:37:28 52° E 04:41:48 10° S
SL-4 R/B 1.6 04:39:30 69° SSW 04:39:30 69° SSW 04:42:53 10° ESE
PAYLOAD B 4.4 04:37:45 10° NNE 04:43:24 77° ESE 04:49:01 10° SSW
ADEOS Rocket 3.4 04:38:41 10° SE 04:44:01 56° ENE 04:49:33 10° N
COSMOS 2455 3.2 04:38:06 10° SSW 04:44:02 65° ESE 04:50:00 10° NE
CZ-4B R/B 3.7 04:40:28 10° NNE 04:46:02 62° ESE 04:51:26 10° S
USA 116 4.0 04:41:31 10° S 04:46:21 73° WSW 04:49:22 20° NNW
STARLINK-29 4.0 04:47:02 37° N 04:47:14 37° N 04:50:33 10° ENE
ATLAS 2AS CENTAUR R/B 3.8 04:40:00 10° SSW 04:47:39 54° ESE 04:55:21 10° NE
STARLINK-52 4.0 04:47:41 36° N 04:47:53 37° N 04:51:11 10° ENE
NOSS 7 (D) 4.0 04:49:39 70° SSW 04:49:39 70° SSW 04:52:52 10° SSE
Cosmos 1980 Rocket 2.1 04:49:20 10° SSW 04:55:02 87° WNW 05:00:46 10° NNE
FENGYUN 3A 3.5 04:49:44 10° N 04:55:07 70° WNW 05:00:29 10° SSW
USA 238 DEB 3.9 04:51:11 25° NW 04:55:32 59° WSW 05:02:46 10° SSE
USA 238 3.9 04:51:16 25° NW 04:55:38 59° WSW 05:02:53 10° SSE
Meteor 2-10 4.4 04:50:30 10° S 04:56:02 73° E 05:01:25 10° NNE
Cosmos 773 Rocket 4.2 04:55:06 15° SW 04:59:21 49° WNW 05:04:30 10° NNE
Meteor 1-21 Rocket 4.4 04:54:32 10° NNW 05:00:14 56° W 05:06:00 10° S
Cosmos 2058 Rocket 4.1 04:56:12 10° SSE 05:00:27 49° E 05:04:42 10° NNE
Cosmos 1825 Rocket 3.5 04:57:38 13° NNW 05:01:21 60° W 05:05:37 10° S
Lacrosse 5 rocket 2.8 05:00:19 25° NW 05:01:37 28° N 05:05:32 10° NE
Cosmos 1908 4.1 04:59:42 10° S 05:03:30 52° E 05:07:20 10° NNE
Cosmos 972 Rocket 4.4 04:57:08 10° NNW 05:03:32 64° WSW 05:09:10 10° S
Cosmos 1697 Rocket 2.9 04:59:42 18° WSW 05:03:36 46° NW 05:09:01 10° NNE
Cosmos 1726 2.0 05:00:15 10° S 05:03:56 87° W 05:07:37 10° N
STARLINK-61 4.0 05:02:08 17° SW 05:05:02 58° SSE 05:08:57 10° ENE
Cosmos 2366 rocket 4.1 04:59:17 10° N 05:05:41 81° E 05:12:03 10° SSE
BREEZE M DEB (TANK) 3.5 05:05:28 19° SW 05:07:11 49° SSE 05:12:31 10° ENE
Cosmos 1703 3.2 05:03:46 10° N 05:07:46 86° E 05:11:43 10° S
Cosmos 44 Rocket 4.2 05:08:05 26° W 05:08:52 27° WSW 05:12:51 10° S
Orbus 7S? 3.5 05:07:27 33° WNW 05:08:55 73° SW 05:15:06 10° SE
SMAP 4.1 05:06:59 10° NNE 05:11:33 50° E 05:16:03 10° S
Cosmos 2056 Rocket 4.3 05:06:51 10° NNW 05:12:12 55° ENE 05:17:31 10° SE
NOSS 2-2 (D) 3.4 05:11:27 25° WSW 05:13:21 52° NW 05:17:32 10° NE
Cosmos 2227 4.1 05:08:41 13° NNW 05:13:44 70° WSW 05:19:18 10° SSE
Cosmos 1953 2.8 05:11:54 10° SW 05:15:40 37° WNW 05:19:29 10° N
Cosmos 923 Rocket 4.0 05:12:40 10° SSW 05:17:56 87° ESE 05:23:17 10° NNE
COSMO-SKYMED 1 3.8 05:14:48 10° SW 05:17:54 21° W 05:17:54 21° W
STARLINK-75 4.1 05:14:32 10° SW 05:18:18 53° SSE 05:22:07 10° ENE
STARLINK-53 4.4 05:14:40 10° SW 05:18:33 50° SE 05:22:28 10° ENE
Genesis I 3.5 05:16:50 17° NNW 05:19:44 63° NE 05:23:32 10° SE
Cosmos 1606 Rocket 3.6 05:17:30 10° SSW 05:21:51 54° WNW 05:26:13 10° N
Cosmos 1726 Rocket 3.5 05:19:57 10° SSW 05:24:22 63° WNW 05:28:48 10° N
CZ-4B DEB 4.5 05:21:28 10° N 05:26:45 45° WNW 05:31:58 10° SW
Lacrosse 5 4.4 05:23:28 10° S 05:27:26 23° SE 05:31:25 10° ENE
STARLINK-41 4.1 05:23:56 10° SW 05:27:43 54° SSE 05:31:31 10° ENE
USA 32 4.3 05:23:56 10° NNW 05:28:56 46° W 05:33:54 10° SSW
Cosmos 2278 Rocket 4.5 05:26:59 10° N 05:29:53 14° NNE 05:32:46 10° ENE
BREEZE-M DEB (TANK) 4.5 05:27:28 19° W 05:30:08 71° SSW 05:40:40 10° ESE
STARLINK-58 4.1 05:27:46 10° SW 05:31:44 60° SSE 05:35:42 10° ENE
Timation 1 Rocket 4.4 05:27:22 10° NW 05:33:18 61° WSW 05:39:12 10° SSE
STARLINK-62 4.0 05:29:27 10° SW 05:33:24 63° SSE 05:37:24 10° ENE
STARLINK 4.0 05:31:52 10° SW 05:35:39 58° SSE 05:39:27 10° ENE
STARLINK-43 4.0 05:33:25 19° WNW 05:35:42 40° N 05:39:15 10° ENE
Cosmos 2181 Rocket 4.0 05:29:43 10° SSW 05:35:49 59° WNW 05:42:03 10° N
Elektron 3 4.3 05:30:15 10° SW 05:35:50 77° NW 05:39:00 10° NE
FALCON 9 DEB 3.1 05:35:47 11° SW 05:37:19 33° SSE 05:38:59 10° ENE
AQUARIUS 4.2 05:36:34 10° NNE 05:41:07 87° ESE 05:45:36 10° SSW
Cosmos 2322 Rocket 2.8 05:37:33 10° SSW 05:43:07 64° ESE 05:48:46 10° NNE
SL-8 Rocket 4.3 05:37:18 10° NNW 05:43:10 45° W 05:48:59 10° SSW
Cosmos 2344 4.0 05:39:21 10° WSW 05:46:35 47° NNW 05:55:01 10° NE
NOSS 3-2 (C) 4.4 05:40:39 10° NW 05:47:50 49° WSW 05:55:49 10° S
Meteor 2-12 Rocket 4.4 05:42:13 10° N 05:48:19 83° W 05:54:26 10° S
ALOS 3.4 05:44:50 10° NNW 05:48:21 22° WNW 05:51:53 10° WSW
NOSS 2-2 (C) 4.3 05:49:07 11° W 05:52:20 29° NNW 05:56:13 10° NNE
Cosmos 2058 4.0 05:50:26 10° N 05:54:32 48° ENE 05:58:36 10° SSE
Cosmos 2263 Rocket 2.6 05:49:27 10° NW 05:54:47 44° WSW 06:00:07 10° S
STARLINK-34 3.6 05:50:47 10° WSW 05:54:48 83° SSE 05:58:51 10° ENE
Cosmos 1452 Rocket 4.5 05:49:53 10° NNW 05:55:00 47° ENE 06:00:03 10° SE
STARLINK-80 3.9 05:51:41 12° W 05:55:02 43° N 05:58:41 10° ENE
Cosmos 1076 Rocket 4.2 05:51:01 10° N 05:55:22 58° ENE 05:59:40 10° SSE
Cosmos 2228 3.9 05:51:32 10° SW 05:55:22 29° WNW 05:59:13 10° N
STARLINK-60 3.1 05:53:38 12° WNW 05:56:42 73° NNE 06:00:04 10° ESE
STARLINK-24 3.6 05:52:56 10° WSW 05:56:58 85° SSE 06:01:00 10° ENE
STARLINK-81 3.6 05:53:56 10° WSW 05:57:57 81° SSE 06:02:00 10° ENE
STARLINK-48 3.8 05:55:00 10° W 05:58:47 48° NNW 06:02:34 10° ENE
STARLINK-54 3.6 05:55:46 10° WSW 05:59:47 87° SSE 06:03:50 10° ENE
STARLINK-77 3.6 05:57:14 10° WSW 06:01:15 84° SSE 06:05:18 10° ENE
ATLAS 3B R/B 2.8 05:54:41 10° NW 06:01:19 64° WSW 06:08:08 10° SSE
STARLINK-25 3.6 05:58:39 10° WSW 06:02:41 86° SSE 06:06:44 10° ENE
Envisat 3.1 05:57:43 10° NNE 06:02:51 88° ESE 06:07:56 10° SSW
NOSS 3-4 (A) 3.4 05:57:09 10° SW 06:03:10 82° NW 06:09:39 10° NE
Abrixas rocket 3.1 06:00:25 10° W 06:03:13 35° SSW 06:06:02 10° SE
NOSS 3-4 (C) 3.4 05:57:15 10° SW 06:03:16 83° NW 06:09:45 10° NE
Helios 1A Rocket 3.8 06:01:12 10° N 06:04:41 27° WNW 06:08:10 10° WSW
STARLINK-71 3.5 06:00:45 10° WSW 06:04:47 87° NNW 06:08:50 10° ENE
Transit 2A Rocket 4.4 06:00:32 10° SW 06:04:50 80° NW 06:09:13 10° NNE
CZ-3 R/B 4.1 05:59:53 10° WSW 06:04:56 14° SW 06:08:13 10° S
STARLINK-79 3.6 06:02:10 10° WSW 06:06:12 89° S 06:10:16 10° ENE
STARLINK-78 3.6 06:03:53 10° WSW 06:07:55 89° NNW 06:11:58 10° ENE
Cosmos 1680 Rocket 3.7 06:02:56 10° SW 06:08:05 50° WNW 06:13:18 10° NNE
Cosmos 1844 Rocket 3.2 06:03:38 10° NNW 06:09:14 62° ENE 06:14:49 10° SE
STARLINK-26 3.5 06:06:05 10° W 06:09:32 50° NNW 06:12:59 10° ENE
STARLINK-57 3.5 06:05:38 10° WSW 06:09:40 85° NNW 06:13:43 10° ENE
Cosmos 1371 Rocket 4.4 06:05:05 10° NNW 06:10:08 46° WSW 06:15:12 10° S
CZ-2C R/B 3.8 06:05:44 10° S 06:10:17 58° WSW 06:14:46 10° NNW
Okean-O 2.7 06:05:54 10° NNE 06:10:23 90° ENE 06:14:50 10° SSW
STARLINK-49 3.5 06:07:09 10° WSW 06:11:11 86° NNW 06:15:14 10° ENE
FALCON 9 DEB 3.4 06:08:00 10° WNW 06:11:31 67° NNE 06:15:01 10° ESE
YAOGAN 6 2.5 06:08:39 10° N 06:12:14 78° WNW 06:15:45 10° SSW
STARLINK-27 3.5 06:08:49 10° WSW 06:12:52 84° NNW 06:16:55 10° ENE
Okean O Rocket 2.9 06:10:10 10° NNW 06:13:29 21° WNW 06:16:46 10° WSW
Nadezhda 3 Rocket 4.0 06:08:10 10° S 06:14:19 85° W 06:20:33 10° N
BREEZE M DEB (TANK) 3.6 06:01:48 10° WNW 06:14:29 70° SSW 06:18:04 10° SE
STARLINK-74 3.5 06:10:27 10° WSW 06:14:29 83° NNW 06:18:32 10° ENE
STARLINK-33 3.3 06:11:32 10° WSW 06:15:11 74° NNW 06:18:51 10° ENE
Cosmos 1821 Rocket 4.0 06:09:09 10° NNW 06:15:22 77° W 06:21:28 10° S
STARLINK-39 3.5 06:12:07 10° WSW 06:16:09 81° NNW 06:20:11 10° ENE
